Regional Weather Roundup
Issued by NWS

Home | Current Version | Previous Version | Graphics & Text | Print | Product List | Glossary On
Versions: 1 2 3 4 5 6 7 8 9 10 11 12 13 14 15 16 17 18 19 20 21 22 23 24 25 26 27 28 29 30 31 32 33 34 35 36 37 38 39 40 41 42 43 44 45 46 47 48 49 50
381
ASUS43 KBIS 252310
RWRND
NORTH DAKOTA REGIONAL WEATHER ROUNDUP
NATIONAL WEATHER SERVICE EASTERN NORTH DAKOTA/GRAND FORKS ND
500 PM CST SUN FEB 25 2018

  NOTE: "FAIR" INDICATES FEW OR NO CLOUDS BELOW 12,000 FEET WITH NO
  SIGNIFICANT WEATHER AND/OR OBSTRUCTIONS TO VISIBILITY.

NDZ001>003-009>011-017-260000-
...NORTHWEST NORTH DAKOTA...

CITY           SKY/WX    TMP DP  RH WIND       PRES   REMARKS
WILLISTON      FAIR      29  17  61 SW10      29.61F WCI  20
MINOT          FAIR      30  16  56 SW12      29.62S WCI  20
MINOT AFB      FAIR      27  16  62 SW13        N/A  WCI  17
$$

NDZ018>021-031>035-040>046-260000-
...SOUTHWEST NORTH DAKOTA...

CITY           SKY/WX    TMP DP  RH WIND       PRES   REMARKS
BISMARCK       FAIR      33  19  56 SW10      29.72S WCI  25
DICKINSON      PTSUNNY   30  19  63 SW14      29.64S WCI  19
GARRISON         N/A     29  18  63 SW15      29.64S WCI  18
HETTINGER      CLOUDY    29  18  63 SW16      29.72R WCI  17
$$

NDZ004>008-012>016-024-026-027-054-260000-
...NORTHEAST NORTH DAKOTA...

CITY           SKY/WX    TMP DP  RH WIND       PRES   REMARKS
GRAND FORKS    FAIR      27  21  78 W12       29.70R WCI  17
GRAND FORKS AF FAIR      29  20  70 W14       29.69R WCI  18
DEVILS LAKE    FAIR      25  19  78 W13       29.67R WCI  14
$$

NDZ022-023-025-028>030-036>039-047>053-260000-
...SOUTHEAST NORTH DAKOTA...

CITY           SKY/WX    TMP DP  RH WIND       PRES   REMARKS
JAMESTOWN      FAIR      29  19  66 W13       29.71R WCI  19
FARGO          FAIR      28  21  75 W15       29.75R WCI  16
WAHPETON       FAIR      23  19  86 SW14      29.81R WCI  11
$$




USA.gov is the U.S. government's official web portal to all federal, state and local government web resources and services.